星链-4217 (STARLINK-4217 )

导读 | 豆包AI

STARLINK-4217是美国太空探索技术公司(SpaceX)星链计划中的卫星,于2022年7月7日发射升空,属于星链星座组网卫星,旨在为全球提供高速低延迟卫星互联网服务,弥补地面网络覆盖盲区,推进全球互联网互联互通建设,星链系统也在卫星通信领域产生了深远影响。

基本信息
目录编号:
52999
目录名称:
STARLINK-4217
国际标识:
2022-076P
轨道中心:
EARTH
卫星名称:
星链-4217
卫星全名:
星链-4217 (STARLINK-4217 )
卫星状态:
在轨 (已飞行1393 天)
发射日期:
2022-07-07 UTC
国别 :
美国 (US)
星等 :
--
轨道信息
数据来源 国际轨道数据 AOE轨道数据
星历时间 2026-04-30T14:36:59+0800
12小时前
查看轨道信息
2026-04-26T07:00:00+0800
4天前
查看轨道信息
半长轴 6917.889km 6917.762km
偏心率 0.0001204 0.0001598
轨道倾角 53.217° 53.217°
近地点辐角 90.147° 62.147°
升交点赤经 222.542° 241.924°
平近点角 269.966° 234.197°
近地点 538.919km 538.519km
远地点 540.585km 540.731km
周期 95.438分钟 95.435分钟
每日圈数 15.088375 15.088788
详细信息
固有亮度:
5
最大亮度:
2.5
卫星平台:
Starlink v1.5
覆盖范围:
全球
运营商:
太空探索技术公司
运营商所在国:
美国
制造商(研发单位):
太空探索技术公司
制造商所在国:
美国
使用方式:
暂无
卫星简介
星链(Starlink)计划是由太空探索技术公司(SpaceX)提出的一个巨型低轨卫星互联网星座项目,计划在2019年至2024年间在太空搭建由约1.2万颗卫星组成的“星链”网络,其中1584颗将部署在地球上空550千米处的近地轨道,并从2020年开始工作。该卫星仍在工作。
2D轨道图
3D轨道图
轨道高度分析图
轨道倾角分析图
轨道综合分析图
查看轨道综合分析图